Regional Weather Roundup
Issued by NWS Wakefield, VA

Home | Current Version | Previous Version | Graphics & Text | Print | Product List | Glossary On
Versions: 1 2 3 4 5 6 7 8 9 10 11 12 13 14 15 16 17 18 19 20 21 22 23 24 25 26 27 28 29 30 31 32 33 34 35 36 37 38 39 40 41 42 43 44 45 46 47 48 49 50
680
ASUS41 KAKQ 141515
RWRAKQ

REGIONAL WEATHER ROUNDUP
NATIONAL WEATHER SERVICE WAKEFIELD VA
1000 AM EST SUN FEB 14 2016

Note: "fair" indicates few or no clouds below 12,000 feet with no
significant weather and/or obstructions to visibility. * = Denotes
station may not report precipitation (e.g., rain,snow,etc.),
thunder or fog.

VAZ042-051-052>054-056-141600-
NORTHERN VIRGINIA

CITY           SKY/WX    TMP DP  RH WIND       PRES   REMARKS
WASH NATIONAL  FAIR      19  -1  41 NW10      30.59F WCI   7
DULLES         FAIR      17  -3  41 NW10      30.56F WCI   5
FORT BELVOIR   FAIR      18  -4  38 VRB6      30.59S
QUANTICO       FAIR      21  -2  36 N9G17     30.61S
FREDERICKSBRG* FAIR      19   0  43 N13       30.58S WCI   6
STAFFORD*      FAIR      19  -3  38 N10G20    30.62S WCI   7
WARRENTON      FAIR      20   3  47 NW6       30.56S
CULPEPER*      FAIR      17  -1  46 NW3       30.58S
MANASSAS*      SUNNY     19   1  45 NW3       30.58S
LEESBURG*      FAIR      19   3  49 N7        30.57R
WINCHESTER     FAIR      18   1  49 W8        30.52S
FRONT ROYAL*   FAIR      18   0  45 NW5       30.51S
LURAY*         FAIR      18   0  45 E3        30.50S
$$

VAZ048-049-060>072-079>083-141600-
CENTRAL AND SOUTH CENTRAL VIRGINIA

CITY           SKY/WX    TMP DP  RH WIND       PRES   REMARKS
RICHMOND       FAIR      19  -2  39 N7        30.58S
CHESTERFIELD*  FAIR      19  -9  27 N8        30.59R
PETERSBURG*    FAIR      22  -8  26 N3        30.59S
HANOVER        FAIR      19  -1  41 VRB5      30.59S
TAPPAHANNOCK*  FAIR      20  -3  36 N9        30.58S
QUINTON*       FAIR      19  -2  39 N8        30.58S
CHARLOTTSVILLE FAIR      18  -2  41 NE6       30.53F
GORDONSVILLE*  FAIR      18  -1  42 NE5       30.54F
ORANGE*        FAIR      19   0  42 N6        30.56F
LOUISA*        FAIR      18   0  45 N5        30.53F
BUMPASS*       FAIR      18  -1  43 N5        30.56S
FARMVILLE*     FAIR      21  -3  35 N6        30.55S
CREWE*         FAIR      20  -3  36 NW6       30.56S
FORT PICKETT*  FAIR      20  -4  34 N8        30.56S
CHASE CITY*    FAIR      20  -7  30 NW6       30.56R
CLARKSVILLE*   FAIR      21  -4  33 CALM      30.57R
SOUTH HILL*    FAIR      19  -3  38 NE5       30.62S
LAWRENCEVILLE* FAIR      20  -3  35 N6        30.57S
EMPORIA*       FAIR      19   0  42 NW5       30.60F
$$

VAZ088>098-141600-
SOUTHEAST VIRGINIA

CITY           SKY/WX    TMP DP  RH WIND       PRES   REMARKS
NORFOLK        FAIR      20   1  43 N13       30.58R WCI   7
VIRGINIA BEACH PTSUNNY   23   5  46 NW15      30.57R WCI  10
NORFOLK NAVAL  FAIR      22  -1  36 N14G21    30.60R WCI   9
WEST POINT*    FAIR      20  -3  35 NW9       30.60S
SALUDA*        FAIR      20  -3  37 N14       30.57S WCI   6
NEWPORT NEWS   FAIR      21  -1  38 NE10      30.59R WCI  10
LANGLEY AFB    FAIR      20  -2  37 N16G22    30.57S WCI   6
FORT EUSTIS    FAIR      20  -1  39 N8G18     30.57S
WILLIAMSBURG*  FAIR      25   1  36 NE6       30.60R
HR EXEC AP*    FAIR      21   0  39 N7        30.60F
FRANKLIN*      FAIR      20  -2  36 NE8G16    30.60S
US460-WAKEFLD  FAIR      21  -3  35 N9G16     30.59S
$$

VAZ020-022-025-037-045-141600-
WEST CENTRAL AND SOUTHWEST VIRGINIA

CITY           SKY/WX    TMP DP  RH WIND       PRES   REMARKS
STAUNTON*      FAIR      17   0  46 CALM      30.51R
WAYNESBORO*    FAIR      12  -5  45 CALM      30.46S
HOT SPRINGS VA FAIR       5  -3  68 CALM      30.19R
LYNCHBURG      FAIR      17  -5  37 CALM      30.53S
DANVILLE       FAIR      22  -3  33 VRB5      30.55F
SOUTH BOSTON*  FAIR      21  -6  29 CALM      30.57S
MARTINSVILLE   CLOUDY    17  -3  40 NE9       30.52F
ROANOKE        PTSUNNY   15  -4  42 VRB3      30.51S
BLACKSBURG     CLOUDY    15   0  52 CALM      30.42R
DUBLIN*        CLOUDY    14   1  54 CALM      30.41R
MARION*        CLOUDY    14   3  60 E7        30.35F
HILLSVILLE*    CLOUDY    13   0  56 NE3       30.31R
RICHLANDS*     CLOUDY    12  -1  56 CALM      30.28F
WISE*          CLOUDY    16   0  48 CALM      30.28F
ABINGDON*      CLOUDY    18   3  50 E10       30.33S WCI   6
$$

MDZ021>025-VAZ099-100-141600-
SOUTHERN MARYLAND AND THE DELMARVA PENINSULA

CITY           SKY/WX    TMP DP  RH WIND       PRES   REMARKS
PATUXENT RIVER MOSUNNY   19  -4  36 N20       30.57S WCI   3
BAY BRIDGE APT   N/A     19  -4  35 NW7       30.57F
LEONARDTOWN    SUNNY     19  -2  38 MISG        N/A
DOVER          SUNNY     17  -3  41 NW13      30.54S WCI   3
GEORGETOWN     SUNNY     17  -5  37 NW12G18   30.55S WCI   4
EASTON         NOT AVBL
CAMBRIDGE      SUNNY     18  -2  41 N13G21    30.56S WCI   4
SALISBURY      SUNNY     19  -3  38 N14       30.54F WCI   6
OCEAN CITY     SUNNY     18  -5  36 NW18G25   30.54F WCI   2
WALLOPS ISLAND FAIR      20  -3  36 N14G20    30.54F WCI   7
ACCOMACK*      FAIR      19   0  42 NW12G21   30.55S WCI   7
$$

NCZ012>017-030>032-141600-
NORTH CENTRAL AND EASTERN NORTH CAROLINA

CITY           SKY/WX    TMP DP  RH WIND       PRES   REMARKS
ROANOKE RAPIDS FAIR      23   0  36 NE8       30.59S
RALEIGH        PTSUNNY   21  -3  35 NE9       30.56S
ELIZABETH CITY SUNNY     22   4  46 N14       30.58S WCI   9
AHOSKIE*       SUNNY     20  -4  34 N10       30.60R WCI   9
EDENTON*       SUNNY     24   1  37 NE9       30.59S
CURRITUCK*     SUNNY     23   5  47 N14       30.58R WCI  10
KILL DEVIL HLS PTSUNNY   24  10  53 NW7G23    30.55R
MANTEO         PTSUNNY   23  11  61 N14G20    30.56S WCI  10
CAPE HATTERAS  PTSUNNY   27  13  55 N12G21    30.54S WCI  17
TARBORO*       FAIR      24  -1  33 NE7       30.60F
GOLDSBORO      NOT AVBL
WASHINGTON     SUNNY     22   0  37 N12G17    30.58S WCI  11
GREENVILLE     SUNNY     23   0  36 E12       30.57F WCI  12
NEW BERN       SUNNY     24   1  36 N13       30.58S WCI  12
WILMINGTON     SUNNY     27   1  32 NE8G20    30.56R
$$

VAZ048-141600-
ELSEWHERE

CITY           SKY/WX    TMP DP  RH WIND       PRES   REMARKS
HARRISBURG PA  MOSUNNY   12  -4  48 N7        30.52F
BALTIMORE      MOSUNNY   17  -3  41 NW8       30.56F
ANNAPOLIS      SUNNY     17   3  54 NW10      30.57F WCI   5
ANDREWS AFB    FAIR      17  -3  41 NW10      30.55S WCI   5
PHILADELPHIA   MOSUNNY   13 -13  30 NW14      30.56S WCI  -2
HENDERSON NC   MOSUNNY   21  -6  30 N5        30.56S
GREENSBORO     CLOUDY    20  -3  36 NE9       30.49F
ROCKY MOUNT    SUNNY     21  -2  36 NE8       30.59S
$$

VAZ100-141600-
MARINE

STATION/POSITION TIME  TEMP    WIND        PRES    WAVE   SWELL
                       AIR SEA DIR/SP/G            HT/PER HT/PER
                 (UTC) (F)     (DEG/KT/KT) (MB)    (FT/S) (FT/S)
BRANDYWINE LGT   1400   13     330/ 18/ 24 1034.2R
CAPE MAY NJ      1400   14 31  330/ 15/ 25 1034.2R
LEWES DE         1400   15 31  330/ 19/ 22 1034.4R
15NM E FENWICK I 1450   18 42              1033.7S   6/ 6
OCEAN-CITY-INLET 1400   15 31  360/ 17/ 23 1033.6F
WACHAPREAGUE VA  1400   18 29  320/  7/ 16 1034.4R
THOMAS POINT MD  1500   15 35  340/ 16/ 20 1035.7F
GOOSES REEF MD   1500   17 36  340/ 14/ 19 1036.2F   2/ 4
COVE POINT MD    1400   14     350/ 19/ 26 1035.8S
SOLOMONS ISLAND  1400   16 36  330/ 13/ 17   N/A
BISHOPS HEAD MD  1400   17 30  340/ 11/ 19 1034.1S
PINEY POINT MD   1400          360/ 14/ 16   N/A
POTOMAC MD       1500   18 36  360/ 14/ 19 1034.2F   2/ 3
CAMBRIDGE MD     1400   16 32  350/ 16/ 19 1034.4R
LEWISETTA VA     1400   17 31  360/ 10/ 18 1035.3R
RAPPAHANNOCK LGT 1400          340/ 18/ 20 1034.6R
STINGRAY PT      1500   19 38  360/ 16/ 19 1035.4R   2/ 3
YORK RVR RNG VA  1400   18     360/ 18/ 25 1034.5R
YORKTOWN VA      1400   18 37  350/ 12/ 17 1035.5R
JAMESTOWN VA     1500   18 39  350/  8/ 16   N/A
DOMINION TERM VA 1400   18     360/ 12/ 16 1035.5R
KIPTOPEKE VA     1400      33  360/ 15/ 25   N/A
CHES BAY BRIDGE  1400   18 38  330/ 19/ 22 1034.8R
CAPE HENRY VA    1400   19     350/ 18/ 26   N/A
CHESAPEAKE LGHT  1400   18     340/ 20/ 22 1035.1R
WILLOUBY STN VA  1400   18     340/ 16/ 20 1035.9S
CAPE HENRY BUOY  1358      42                N/A     5/ 6
1ST LANDING BUOY 1500      38                N/A     3/ 3
OFFSHORE WE BUOY 1421      45                N/A     6/ 6   2/20
64NM E OF VA BCH 1450   24 50  350/ 19/ 27 1033.2R   7/ 8   2/ 9
DUCK PIER NC     1400   21     340/ 19/ 25 1033.6R
44100 DUCK FRF   1424      44                N/A     7/ 6
44056 DUCK FRF   1411      41                N/A     5/ 7
OREGON INLET NC  1400   22 38  340/ 12/ 18 1034.0R
HATTERAS NC      1400   23 38  350/ 20/ 25 1033.5R
DIAMOND SHLS NC  1450   29 72   10/ 19/ 25 1033.4R   6/ 6   2/10
CAPE LOOKOUT NC  1500   24      20/ 19/ 23 1033.8S
$$




USA.gov is the U.S. government's official web portal to all federal, state and local government web resources and services.